#timestamp,LO_Frequency,Hit,StdDev 
1542924015.9,286046992.0,N
1542924035.7,286046992.7,N
1542924055.6,286046992.4,N
1542924075.4,286046991.9,N
1542924095.2,286046990.7,N
1542924115.1,286046991.4,N
1542924116.0,286046991.4,N
1542924135.8,286046988.8,N
1542924155.7,286046989.8,N
1542924175.5,286046989.0,N
1542924195.3,286046989.6,N
1542924215.2,286046987.5,N
1542924235.0,286046991.5,N
1542924235.9,286046991.5,N
1542924255.8,286046989.8,N
1542924275.6,286046987.8,Y
1542924295.4,286046997.4,P
1542924315.3,286046995.5,N
1542924335.1,286046995.5,N
1542924355.9,286046997.2,N
1542924375.7,286046993.3,Y
1542924395.5,286046995.3,P
1542924415.4,286046996.3,P
1542924435.2,286046993.8,P
1542924455.1,286046994.3,Y
1542924456.0,286046994.3,P
1542924475.8,286046998.9,N
1542924495.6,286046997.0,N
1542924515.5,286046993.7,Y
1542924535.3,286046997.1,P
1542924555.2,286046994.9,P
1542924575.9,286046995.2,P
1542924595.7,286046996.3,Y
1542924615.6,286046996.9,P
1542924635.4,286046999.3,N
1542924655.2,286046997.0,N
1542924675.1,286046997.4,N
1542924676.0,286046997.4,N
1542924695.8,286046995.6,Y
1542924715.7,286046998.0,P
1542924735.5,286046997.8,P
1542924755.3,286046999.0,P
1542924775.2,286047001.9,Y
1542924795.0,286047009.5,P
1542924795.9,286047009.5,N
1542924815.8,286047010.5,N
1542924835.6,286047011.3,N
1542924855.4,286047010.0,N
1542924875.3,286047010.7,N
1542924895.1,286047007.8,N
1542924915.8,286047010.1,N
1542924935.7,286047011.6,Y
1542924955.5,286047000.2,P
1542924975.4,286047002.6,N
1542924995.2,286047000.1,N
1542925015.0,286047000.4,N
1542925015.9,286047000.4,N
1542925035.8,286047000.8,N
1542925055.6,286047000.9,N
1542925075.5,286047000.2,N
1542925095.3,286047000.7,N
1542925115.1,286047002.4,N
1542925135.9,286047002.0,N
1542925155.7,286047002.0,N
1542925175.5,286047002.1,N
1542925195.4,286047003.5,N
1542925215.2,286047005.0,N
1542925235.1,286047004.9,N
1542925236.0,286047004.9,N
1542925255.8,286047004.6,N
1542925275.6,286047006.7,N
1542925295.5,286047008.7,Y
1542925315.3,286047007.6,P
1542925335.1,286047004.4,N
1542925355.9,286047000.5,N
1542925375.7,286046999.9,N
1542925395.6,286047001.0,N
1542925415.4,286046999.5,N
1542925435.2,286046997.2,N
1542925455.1,286046993.8,N
1542925456.0,286046993.8,N
1542925475.8,286046994.8,N
1542925495.6,286046992.3,N
1542925515.5,286046989.3,N
1542925535.3,286046991.3,N
1542925555.2,286046989.0,N
1542925575.9,286046991.7,N
1542925595.7,286046993.4,N
1542925615.6,286046994.1,N
1542925635.4,286046995.7,N
1542925655.2,286046999.5,N
1542925675.1,286047011.9,N
1542925676.0,286046998.4,N
1542925695.8,286046996.6,N
1542925715.7,286047000.9,N
1542925735.5,286047000.0,N
1542925755.3,286046998.6,N
1542925775.2,286046999.1,N
1542925795.9,286046998.6,N
1542925815.7,286046996.7,N
1542925835.6,286046996.9,N
1542925855.4,286046997.0,N
1542925875.2,286046999.6,N
1542925895.1,286046997.6,N
1542925896.0,286046997.6,N
1542925915.8,286046997.5,N
1542925935.7,286046995.1,N
1542925955.5,286046996.8,N
1542925975.3,286046999.5,N
1542925995.2,286046995.0,N
1542926015.0,286046995.4,N
1542926015.9,286046995.4,N
1542926035.7,286046993.6,N
1542926055.6,286046994.1,N
1542926075.4,286046992.1,N
1542926095.3,286046991.8,N
1542926115.1,286046991.1,N
1542926116.0,286046991.1,N
1542926135.8,286046988.6,N
1542926155.7,286046988.8,N
1542926175.5,286046987.5,N
1542926195.3,286046988.0,N
1542926215.2,286046988.0,Y
1542926235.0,286046993.1,P
1542926235.9,286046993.1,P
1542926255.8,286046992.9,P
1542926275.6,286046990.7,Y
1542926295.4,286046996.5,P
1542926315.3,286046997.6,N
1542926335.1,286046998.1,N
1542926355.9,286047000.3,N
1542926375.7,286047002.6,N
1542926395.5,286047003.1,N
1542926415.4,286047007.1,N
1542926435.2,286047006.9,N
1542926455.0,286047005.0,N
1542926455.9,286047005.0,N
1542926475.8,286047007.4,N
1542926495.6,286047007.4,N
1542926515.5,286047010.6,N
1542926535.3,286047013.9,N
1542926555.1,286047017.0,Y
1542926575.9,286047011.3,P
1542926595.7,286047010.8,N
1542926615.5,286047008.9,N
1542926635.4,286047004.8,N
1542926655.2,286047003.5,N
1542926675.1,286047005.6,N
1542926676.0,286047005.6,N
1542926695.8,286046999.9,N
1542926715.6,286047002.7,N
1542926735.5,286047002.8,N
1542926755.3,286047003.4,N
1542926775.1,286047003.7,N
1542926795.9,286047004.3,N
1542926815.7,286047001.9,N
1542926835.6,286047001.7,N
1542926855.4,286047002.4,N
1542926875.2,286047000.0,N
1542926895.1,286047000.9,N
1542926896.0,286047000.9,N
1542926915.8,286047000.6,N
1542926935.6,286047000.4,N
1542926955.5,286047002.0,N
1542926975.3,286047000.8,N
1542926995.1,286046998.2,N
1542927015.9,286047000.4,N
1542927035.7,286047001.6,N
1542927055.6,286046998.5,N
1542927075.4,286046998.1,N
1542927095.2,286047000.2,N
1542927115.1,286047002.6,N
1542927116.0,286047002.6,N
1542927135.8,286047001.9,N
1542927155.6,286047002.0,N
1542927175.5,286047005.4,N
1542927195.3,286047003.0,N
1542927215.2,286047002.7,N
1542927235.9,286046998.8,N
1542927255.7,286046998.7,N
1542927275.6,286046997.0,N
1542927295.4,286046995.5,N
1542927315.2,286046999.6,N
1542927335.1,286046996.5,N
1542927336.0,286046996.5,N
1542927355.8,286046994.9,N
1542927375.7,286046997.4,N
1542927395.5,286046997.9,N
1542927415.3,286047000.6,N
1542927435.2,286047000.8,N
1542927455.0,286046998.9,N
1542927455.9,286046998.9,N
1542927475.7,286046996.6,N
1542927495.6,286046999.2,N
1542927515.4,286046999.5,N
1542927535.3,286046997.4,N
1542927555.1,286046996.8,N
1542927556.0,286046996.8,N
1542927575.8,286046998.6,N
1542927595.7,286047000.2,N
